Wind_Speed
34 35 32 35 27 27 27 26 25 24 24 19 17 16 15 11 8 6 6 10 13 16 16 22 19 14 15 13 7 2 5 3 6 8 9 13 14 14 15 14 7 7 7 7 10 11 5 14 15 10 13 16 18 20
35 31 31 32 30 27 26 25 23 23 22 20 16 16 14 13 10 7 6 7 11 13 11 14 17 19 16 21 16 8 5 2 3 6 6 10 10 11 10 6 7 8 9 7 2 3 7 11 11 12 14 17 16 17
34 35 31 32 27 27 26 24 22 21 21 20 16 15 14 13 12 9 6 6 7 7 6 9 10 12 10 17 21 16 12 10 9 12 12 5 6 5 2 6 9 13 11 13 5 8 9 10 13 15 14 12 14 16
33 29 28 27 26 26 25 24 22 21 20 19 16 14 14 12 12 10 8 4 3 6 13 9 7 10 8 12 18 25 26 22 16 20 20 14 4 5 7 6 3 7 12 13 12 16 13 13 11 13 14 17 19 21
31 28 31 26 25 26 24 24 21 19 19 18 16 14 12 12 11 10 8 6 2 7 7 8 2 2 8 9 9 13 21 25 21 15 19 20 18 12 13 5 7 11 13 19 20 17 18 17 16 17 17 20 22 18
29 29 25 25 23 25 24 23 19 17 17 17 17 13 11 11 11 10 6 3 2 5 9 6 1 6 9 13 14 3 7 14 18 13 10 11 18 13 10 9 9 12 13 18 20 17 14 15 16 17 18 17 13 15
28 26 25 23 22 24 23 22 18 15 16 16 14 13 12 11 10 8 6 5 3 2 5 7 1 6 11 14 2 4 7 5 10 15 13 11 15 12 15 8 14 14 16 18 16 15 14 10 10 13 18 13 12 16
24 23 26 22 23 23 23 20 17 15 15 15 13 12 12 11 11 6 6 5 3 0 4 3 4 12 10 6 6 8 10 9 11 15 7 4 8 11 7 12 18 16 16 14 13 10 11 15 17 16 14 11 13 13
23 22 24 23 21 22 22 19 16 15 13 14 12 11 10 7 12 10 5 4 3 2 5 0 9 8 8 10 12 14 16 12 13 8 12 5 9 8 10 14 13 11 11 12 11 8 13 14 14 11 13 12 13 15
21 23 22 22 22 22 20 16 14 13 13 12 11 10 7 12 9 5 8 5 5 5 4 3 11 16 16 17 17 21 21 20 2 13 8 15 11 8 10 14 13 12 12 11 12 12 11 13 13 17 15 14 15 14
21 20 21 22 23 21 17 14 14 12 12 11 9 7 7 5 2 4 5 6 5 4 4 10 14 12 15 15 12 9 3 2 5 6 9 11 8 15 15 13 13 11 12 10 9 10 11 12 13 13 12 9 12 16
22 22 22 23 22 18 15 14 12 13 12 10 8 4 4 3 5 2 4 4 2 3 10 13 9 7 12 10 4 4 2 3 2 2 2 6 11 10 13 13 12 8 6 7 7 7 8 12 12 11 9 11 10 13
22 22 22 23 19 16 14 13 12 11 9 8 5 3 3 4 4 4 6 5 6 2 9 13 11 5 7 4 2 3 1 0 1 3 3 8 10 16 19 20 15 13 10 12 9 8 9 12 12 14 10 16 13 14
22 21 21 21 17 15 15 13 11 9 6 4 3 5 2 2 1 2 7 9 5 2 7 7 6 8 7 6 3 2 1 2 3 3 2 2 13 12 8 11 10 4 13 7 11 15 17 12 13 17 14 17 14 13
20 21 19 18 16 15 13 11 8 6 5 3 2 1 0 6 8 6 0 6 11 7 3 9 16 8 8 6 5 4 3 3 3 2 6 2 4 8 6 3 5 10 13 16 17 17 20 17 17 18 13 14 14 15
18 18 17 16 15 14 11 9 8 6 5 4 4 6 3 8 10 6 6 9 9 7 9 11 6 5 4 4 5 4 2 2 3 2 4 3 2 2 3 9 16 18 16 16 17 16 19 19 14 12 12 13 14 11
17 15 13 13 12 10 8 7 6 5 3 4 3 2 9 13 9 9 8 5 5 8 10 8 5 3 5 5 4 4 6 11 11 0 5 9 6 9 14 12 15 13 11 13 13 10 13 12 12 12 9 12 12 11
14 12 12 11 9 8 8 7 7 3 1 3 1 9 10 12 11 8 14 10 10 11 10 9 11 12 7 8 9 9 12 3 13 6 10 12 17 19 18 11 14 11 11 11 10 10 10 8 7 6 6 8 11 10
11 12 13 11 9 8 9 7 3 3 4 4 8 9 10 9 11 11 5 7 12 9 6 8 6 7 9 12 10 13 16 15 11 15 17 16 17 17 18 15 17 14 11 12 12 10 9 7 5 4 5 11 15 10
11 12 11 9 9 8 7 4 5 4 5 5 5 8 11 8 9 10 7 11 12 15 10 12 10 11 16 22 10 10 17 18 19 18 13 14 17 18 20 18 17 15 10 11 9 10 7 5 6 8 4 6 4 8
11 11 11 10 10 9 7 7 4 5 7 3 9 11 11 10 8 10 10 11 9 11 9 11 9 10 13 12 13 15 17 15 15 15 12 13 16 14 13 13 13 13 11 11 10 2 11 12 13 11 10 6 9 17
9 9 9 9 10 11 8 9 10 9 8 9 6 8 9 8 7 4 3 5 14 12 15 16 10 10 15 16 15 16 16 16 14 16 17 17 13 11 11 10 13 12 12 9 2 11 17 15 12 5 4 6 5 10
11 11 11 11 9 4 2 4 2 2 3 3 4 5 8 6 5 4 7 6 11 10 12 8 11 12 11 11 12 13 13 13 12 12 14 15 15 13 10 7 7 7 7 4 8 16 18 12 10 9 6 6 4 4
12 13 8 4 3 2 2 2 2 3 3 3 3 5 7 3 4 7 7 9 11 8 4 12 10 9 12 14 17 21 18 16 15 13 14 16 8 1 6 7 11 8 8 5 6 8 15 13 10 7 1 8 8 10
12 6 4 3 2 3 1 1 2 2 4 4 6 9 6 6 6 8 7 12 13 6 6 10 10 10 12 16 19 16 12 7 4 1 5 12 25 31 31 25 21 18 16 13 11 7 4 4 7 4 2 9 16 4
5 3 3 3 3 1 2 3 4 6 6 6 3 6 7 6 5 4 7 5 5 6 9 11 14 15 18 20 13 7 9 15 11 6 12 19 20 20 20 18 15 12 9 6 6 6 5 6 6 1 1 10 16 14
6 2 2 2 1 4 4 6 6 7 7 6 8 6 6 3 4 5 6 5 6 6 7 12 16 18 20 17 8 8 15 15 13 14 22 18 13 14 16 15 6 3 3 4 3 5 7 7 6 4 7 11 17 24
10 10 7 2 6 7 7 8 6 4 4 5 4 3 2 3 7 6 6 6 4 2 1 7 8 14 19 11 13 15 15 16 15 11 16 17 17 12 9 12 15 5 3 9 11 9 12 15 17 19 20 18 11 11
5 10 6 2 5 7 5 5 4 10 4 6 8 8 11 12 16 12 11 3 8 8 2 2 6 9 12 13 10 8 10 11 8 12 12 12 11 11 11 10 10 12 12 7 5 8 7 10 13 12 11 8 7 2
6 8 5 3 3 3 7 9 1 2 6 10 10 8 13 11 13 18 16 18 16 11 6 3 4 7 9 10 7 4 4 5 5 3 7 8 3 5 6 4 5 4 6 8 12 12 8 8 10 11 12 10 11 5
7 1 4 6 6 6 4 8 11 12 12 11 9 7 5 3 6 12 10 14 14 14 13 8 6 3 6 16 7 4 5 7 3 1 5 6 4 4 7 5 4 11 11 3 3 10 13 4 2 7 11 13 14 13
3 5 6 6 6 9 7 6 9 7 6 5 4 3 6 6 8 9 3 7 10 12 12 12 12 8 1 4 4 1 3 1 8 5 7 4 4 4 4 6 8 12 12 2 2 5 14 17 12 13 13 9 14 15
4 4 4 4 7 8 1 6 6 7 6 2 2 3 2 3 4 9 10 10 9 12 8 6 1 12 5 2 6 6 8 13 11 9 9 9 11 12 14 13 13 12 10 4 1 5 7 16 20 15 13 14 14 11
Wind_Direction
337 338 341 346 345 344 346 349 350 353 354 353 355 356 355 351 335 307 267 256 245 232 224 241 244 258 245 239 246 197 205 301 272 262 261 251 262 261 280 239 179 188 195 228 248 253 155 198 219 211 181 202 222 244
337 333 333 338 341 342 344 347 347 349 352 351 349 353 353 353 345 325 295 261 249 247 258 247 253 254 252 244 236 181 185 217 278 222 221 249 259 298 248 233 248 209 203 196 235 219 194 212 224 202 211 230 251 270
334 328 326 330 334 339 341 343 344 343 348 349 344 346 349 350 349 341 322 284 266 255 247 257 258 257 250 238 241 234 219 218 239 238 238 224 318 293 80 220 239 220 221 236 240 139 160 195 211 226 249 282 286 284
327 330 329 332 332 335 336 338 339 341 343 346 344 340 344 346 346 348 343 323 278 153 127 133 245 298 285 224 225 231 235 231 230 238 235 227 226 315 263 258 265 215 215 196 176 184 205 218 232 255 278 287 300 300
325 319 328 329 330 333 332 335 335 337 342 345 341 339 342 344 348 349 345 342 207 191 180 149 329 29 6 295 277 252 241 239 231 244 250 256 247 254 230 247 245 201 184 184 184 198 227 250 258 277 284 292 300 294
317 319 321 324 326 330 330 331 330 332 336 342 346 346 342 335 333 336 334 326 316 231 208 171 290 279 224 252 279 288 242 229 205 200 215 266 250 222 210 225 228 234 211 206 221 229 247 266 279 282 289 303 284 291
317 322 321 322 325 328 330 329 327 326 331 335 337 342 347 349 348 342 329 325 325 268 216 191 183 278 309 315 164 56 327 238 198 220 227 258 216 222 205 199 175 211 228 233 227 242 268 240 244 264 275 278 292 295
315 318 324 322 323 327 328 326 324 323 326 328 331 334 340 347 359 2 330 333 329 199 179 169 304 295 282 222 209 207 224 207 254 239 217 216 201 201 206 209 205 221 231 256 268 272 226 234 245 260 285 292 288 296
316 318 321 323 323 325 326 323 321 324 325 328 328 328 339 352 7 12 23 27 45 165 133 200 291 298 288 273 258 248 255 230 225 201 219 199 184 210 221 228 230 226 267 285 275 264 236 245 272 277 265 281 276 305
317 317 319 322 324 326 325 321 323 326 326 329 331 318 340 355 357 30 34 41 70 61 152 297 288 285 283 287 287 278 268 244 237 217 218 219 235 221 215 225 238 255 275 277 265 256 242 249 256 271 272 270 284 304
318 318 320 321 323 324 324 321 321 326 330 329 331 334 329 333 25 69 52 28 17 332 270 277 275 296 280 297 306 285 274 182 232 260 217 194 199 220 223 228 242 250 266 279 248 246 265 266 265 259 264 271 291 311
313 315 318 319 322 319 318 318 319 327 334 340 341 344 33 49 43 17 7 320 314 317 337 332 302 274 288 314 303 320 263 207 163 67 282 260 251 235 241 243 222 214 260 259 247 235 265 281 291 275 275 273 300 301
310 313 316 317 319 315 314 315 316 325 333 339 4 28 27 42 18 15 6 329 332 330 352 21 25 49 39 27 337 329 105 100 305 228 232 237 240 224 221 221 255 251 238 259 270 276 262 287 291 296 282 259 296 293
308 310 314 313 314 312 309 306 307 316 325 336 49 19 17 336 41 326 325 314 312 299 324 323 10 1 353 355 327 326 341 271 250 229 204 46 344 304 290 190 150 211 238 201 279 273 278 267 277 291 284 254 278 287
305 310 313 310 312 315 310 302 301 302 297 272 134 225 271 277 308 166 201 307 291 295 283 302 313 284 289 267 260 249 227 221 239 268 302 323 41 67 76 104 211 247 256 255 250 262 276 266 272 283 277 265 252 293
306 311 311 309 310 309 305 300 297 287 271 229 206 180 326 305 310 331 306 275 291 302 333 340 333 274 267 243 262 260 283 339 309 42 98 37 328 166 319 309 296 289 283 275 267 269 266 270 279 273 266 257 261 260
312 316 309 309 307 307 305 298 296 283 236 144 104 112 295 298 272 252 269 278 324 298 290 283 281 286 307 275 295 306 301 300 154 244 318 310 317 306 316 306 321 305 294 278 283 285 283 280 279 280 269 250 242 250
310 313 311 310 308 308 312 304 291 266 245 88 333 308 300 289 276 289 288 276 286 309 274 284 287 280 278 294 303 306 304 4 57 357 312 309 308 298 309 306 322 303 307 292 284 300 292 284 278 283 249 244 224 223
306 313 313 311 305 306 315 315 296 155 148 327 271 254 257 256 262 261 296 291 288 278 295 293 280 267 267 266 282 310 309 308 307 288 288 282 286 285 284 271 286 297 305 298 286 292 293 279 262 287 287 250 217 225
307 308 308 301 296 299 301 275 290 282 199 241 270 272 274 261 283 272 287 276 263 279 284 266 275 297 299 310 240 304 307 305 306 311 298 294 290 285 279 285 298 268 305 305 300 285 276 237 190 136 135 68 22 8
306 304 304 303 295 289 282 276 266 280 273 256 286 268 284 287 291 285 274 263 291 294 279 289 278 292 294 324 325 308 297 303 306 310 304 300 305 295 289 289 297 307 302 297 309 258 157 130 113 95 100 77 27 7
305 302 297 297 299 301 289 248 240 246 259 231 265 293 301 292 317 288 234 253 260 256 285 296 272 293 303 306 303 299 296 303 303 307 308 308 304 290 275 277 280 286 288 294 278 196 159 142 136 127 127 41 48 3
303 303 300 300 298 283 293 254 273 319 307 308 290 288 288 276 283 286 273 274 297 306 264 354 336 323 311 310 303 306 306 312 317 329 328 319 298 282 280 292 290 279 269 210 193 144 135 131 137 127 168 190 75 21
309 308 300 277 242 202 229 294 322 292 299 332 339 290 314 275 339 276 295 284 277 285 334 318 313 327 321 319 317 313 301 292 288 309 335 350 6 70 120 93 85 108 134 158 146 110 99 93 112 81 344 342 321 306
311 294 259 247 239 115 76 297 304 305 292 304 300 298 301 297 301 304 286 279 292 347 59 337 323 329 323 321 323 318 315 286 208 105 55 82 86 91 93 89 85 81 73 66 76 88 172 181 154 129 286 312 321 306
281 255 234 182 155 256 272 275 268 271 291 290 279 281 279 309 299 271 277 279 315 335 3 350 359 355 349 345 350 38 105 135 120 111 118 99 95 95 97 103 113 106 103 105 142 143 85 73 75 114 299 309 311 321
252 221 46 153 263 285 311 279 285 280 274 278 269 293 293 256 265 281 244 275 78 41 9 4 5 3 1 10 76 117 137 128 126 132 126 113 112 96 75 51 21 280 177 152 65 72 98 81 134 182 238 272 283 296
239 199 169 181 256 277 289 291 296 282 278 291 293 264 236 254 265 260 270 250 213 324 240 353 324 359 359 63 85 124 131 140 133 92 87 97 91 71 55 23 11 40 187 209 214 225 237 247 258 268 272 279 296 325
169 146 155 202 266 277 299 298 279 253 227 304 300 279 294 280 265 284 293 290 228 256 357 17 321 356 2 64 48 83 118 126 96 103 109 102 94 90 64 35 7 360 8 4 285 289 281 265 266 273 288 312 322 246
154 138 127 301 249 295 352 355 78 299 295 296 298 292 297 297 277 272 267 267 267 251 222 226 302 313 341 346 5 70 51 146 118 61 97 138 112 134 100 18 331 277 286 339 341 341 6 28 12 0 345 318 314 280
92 123 248 284 273 273 49 345 316 302 311 313 320 306 295 272 306 317 313 240 225 213 219 197 238 247 300 54 38 88 79 88 99 127 200 169 153 134 53 26 340 316 323 297 297 325 338 332 296 289 279 299 311 316
186 233 245 260 344 351 339 296 308 311 334 342 337 335 28 23 10 357 8 158 176 165 167 181 193 221 185 236 121 125 81 29 342 277 276 216 227 222 194 207 227 262 296 65 33 292 297 314 319 312 309 279 284 306
231 252 242 305 294 346 358 315 312 312 308 249 83 63 72 47 61 69 89 97 111 131 143 197 150 179 198 273 245 289 304 307 294 282 270 257 253 256 267 283 289 300 316 272 292 315 320 302 309 318 325 320 322 324
Height
3173 3168 3162 3156 3151 3146 3141 3136 3132 3127 3123 3119 3116 3112 3110 3107 3106 3105 3105 3105 3105 3106 3108 3108 3112 3114 3114 3113 3114 3114 3117 3120 3120 3120 3120 3120 3119 3120 3121 3122 3122 3124 3126 3127 3129 3129 3131 3131 3132 3135 3136 3135 3135 3136
3170 3165 3160 3155 3150 3145 3140 3135 3131 3127 3122 3119 3115 3112 3109 3107 3105 3103 3103 3102 3102 3103 3106 3107 3108 3109 3110 3111 3113 3115 3116 3117 3117 3117 3116 3117 3117 3117 3117 3118 3119 3121 3122 3124 3128 3127 3127 3128 3131 3130 3131 3132 3133 3134
3166 3161 3156 3151 3147 3142 3138 3134 3129 3125 3121 3118 3114 3112 3109 3106 3104 3102 3101 3100 3100 3101 3103 3104 3104 3105 3106 3107 3109 3113 3112 3113 3114 3114 3115 3116 3117 3116 3116 3117 3117 3118 3120 3120 3124 3126 3125 3125 3126 3128 3130 3132 3131 3129
3162 3157 3153 3148 3144 3140 3136 3132 3127 3124 3120 3116 3113 3110 3108 3106 3103 3101 3100 3099 3099 3099 3100 3103 3101 3102 3101 3102 3102 3104 3106 3109 3111 3112 3113 3114 3115 3115 3115 3116 3115 3116 3118 3119 3120 3122 3123 3124 3125 3126 3127 3127 3126 3125
3157 3153 3149 3144 3140 3136 3133 3129 3125 3122 3118 3115 3112 3109 3107 3105 3103 3101 3099 3099 3098 3101 3100 3101 3102 3102 3102 3100 3100 3100 3102 3104 3106 3108 3110 3111 3113 3113 3114 3114 3112 3113 3115 3117 3116 3118 3120 3122 3121 3123 3124 3123 3122 3120
3152 3148 3144 3140 3136 3133 3129 3125 3122 3119 3117 3114 3110 3107 3105 3103 3101 3100 3099 3099 3097 3097 3099 3100 3101 3101 3101 3099 3098 3097 3098 3101 3102 3104 3106 3108 3108 3110 3112 3113 3111 3110 3114 3116 3116 3118 3119 3118 3118 3119 3119 3118 3117 3115
3147 3144 3140 3136 3132 3129 3125 3122 3119 3116 3114 3112 3109 3107 3104 3102 3100 3099 3099 3098 3096 3096 3097 3099 3100 3099 3099 3097 3097 3097 3099 3098 3101 3101 3102 3101 3104 3106 3108 3106 3106 3110 3111 3111 3115 3117 3116 3114 3115 3114 3114 3114 3114 3113
3142 3139 3136 3132 3128 3124 3121 3118 3116 3113 3111 3109 3107 3105 3103 3101 3099 3098 3096 3095 3095 3096 3097 3098 3100 3099 3096 3095 3096 3095 3095 3096 3098 3098 3100 3099 3100 3101 3102 3103 3104 3109 3110 3109 3112 3112 3110 3110 3111 3112 3112 3111 3110 3108
3137 3134 3131 3127 3124 3121 3117 3115 3112 3110 3108 3107 3105 3103 3101 3100 3097 3097 3096 3095 3095 3098 3097 3099 3098 3097 3094 3095 3095 3096 3094 3094 3094 3095 3096 3097 3098 3097 3098 3100 3102 3105 3107 3107 3106 3108 3107 3107 3107 3108 3109 3107 3106 3104
3132 3130 3127 3124 3120 3117 3114 3111 3109 3107 3106 3104 3102 3101 3098 3098 3097 3097 3096 3096 3096 3096 3097 3098 3096 3095 3095 3093 3091 3093 3090 3091 3089 3090 3093 3093 3093 3095 3096 3097 3099 3101 3103 3104 3103 3103 3103 3104 3105 3104 3104 3103 3102 3100
3129 3126 3123 3120 3117 3113 3110 3108 3106 3105 3103 3102 3100 3099 3098 3097 3098 3097 3097 3097 3097 3097 3097 3096 3093 3091 3089 3090 3088 3088 3086 3085 3086 3087 3089 3089 3091 3092 3091 3094 3096 3097 3099 3099 3100 3100 3099 3099 3099 3099 3100 3099 3098 3095
3124 3122 3119 3116 3113 3110 3107 3106 3104 3102 3100 3099 3099 3098 3098 3098 3097 3099 3098 3098 3097 3097 3095 3092 3090 3089 3088 3087 3086 3085 3084 3085 3086 3088 3088 3087 3090 3091 3092 3092 3093 3094 3096 3097 3097 3098 3097 3096 3096 3095 3095 3095 3094 3092
3119 3117 3115 3112 3109 3107 3105 3103 3102 3100 3099 3098 3098 3098 3098 3099 3099 3099 3099 3098 3097 3096 3095 3092 3090 3089 3088 3087 3086 3086 3085 3085 3086 3087 3087 3086 3085 3085 3086 3086 3088 3091 3095 3095 3095 3094 3094 3092 3092 3092 3092 3091 3091 3089
3115 3113 3110 3107 3105 3103 3102 3100 3099 3098 3097 3097 3097 3098 3099 3099 3100 3099 3098 3098 3097 3096 3095 3093 3092 3091 3090 3089 3087 3086 3086 3086 3086 3085 3084 3082 3084 3081 3080 3075 3080 3091 3089 3086 3091 3090 3089 3089 3088 3087 3087 3086 3087 3086
3110 3108 3106 3104 3102 3100 3098 3097 3097 3096 3096 3096 3098 3098 3099 3098 3098 3098 3097 3096 3095 3092 3093 3093 3092 3089 3090 3088 3087 3086 3085 3084 3084 3083 3084 3084 3082 3083 3083 3084 3086 3087 3087 3086 3086 3084 3084 3083 3083 3083 3083 3082 3081 3082
3105 3104 3102 3100 3099 3097 3096 3095 3094 3094 3094 3095 3095 3097 3098 3098 3095 3095 3095 3095 3094 3093 3092 3091 3089 3088 3087 3087 3086 3084 3084 3083 3083 3082 3082 3082 3082 3082 3083 3083 3083 3081 3081 3080 3080 3080 3079 3078 3078 3078 3078 3078 3079 3078
3100 3099 3098 3097 3096 3094 3093 3092 3092 3091 3091 3092 3095 3096 3095 3093 3094 3093 3093 3092 3091 3092 3090 3090 3089 3087 3087 3084 3084 3083 3082 3082 3078 3081 3080 3081 3081 3081 3080 3079 3077 3076 3075 3075 3074 3074 3073 3073 3073 3073 3074 3074 3075 3075
3096 3096 3095 3094 3093 3092 3091 3090 3090 3089 3090 3092 3093 3093 3093 3092 3092 3091 3090 3090 3089 3089 3088 3087 3087 3086 3085 3084 3083 3082 3081 3075 3073 3081 3079 3079 3077 3077 3074 3071 3074 3074 3073 3072 3071 3070 3069 3069 3069 3069 3069 3070 3072 3072
3094 3093 3092 3091 3091 3090 3089 3089 3089 3089 3090 3089 3089 3090 3089 3089 3088 3087 3087 3088 3087 3085 3085 3085 3085 3084 3083 3082 3081 3080 3079 3076 3078 3079 3079 3075 3073 3071 3071 3070 3070 3070 3069 3068 3067 3066 3065 3066 3066 3067 3067 3067 3068 3068
3092 3090 3089 3089 3089 3088 3088 3087 3087 3087 3087 3088 3087 3086 3086 3085 3084 3084 3083 3084 3084 3084 3083 3082 3082 3081 3080 3075 3076 3076 3077 3076 3074 3072 3071 3069 3068 3067 3066 3066 3066 3067 3064 3063 3063 3063 3063 3063 3064 3064 3066 3068 3068 3069
3089 3088 3087 3086 3086 3085 3085 3084 3085 3085 3085 3085 3084 3083 3083 3083 3082 3082 3082 3082 3082 3080 3079 3079 3078 3077 3077 3073 3074 3074 3073 3071 3070 3068 3067 3065 3064 3063 3061 3061 3061 3060 3060 3061 3061 3061 3063 3064 3065 3065 3065 3067 3067 3068
3087 3085 3084 3084 3083 3082 3082 3081 3082 3082 3082 3081 3082 3082 3081 3080 3080 3080 3080 3080 3078 3078 3077 3076 3076 3075 3074 3073 3071 3070 3068 3067 3066 3065 3063 3061 3059 3058 3057 3058 3058 3058 3058 3059 3059 3060 3060 3061 3064 3065 3066 3067 3066 3069
3084 3083 3082 3081 3081 3080 3081 3080 3080 3080 3081 3080 3080 3080 3079 3079 3079 3079 3078 3078 3076 3075 3073 3072 3072 3072 3071 3069 3067 3065 3064 3064 3062 3061 3059 3056 3054 3053 3054 3055 3056 3056 3056 3057 3058 3059 3062 3064 3065 3066 3068 3067 3065 3068
3081 3080 3079 3078 3078 3078 3079 3079 3080 3080 3080 3079 3079 3079 3078 3077 3078 3077 3077 3076 3075 3074 3072 3073 3072 3069 3067 3065 3063 3060 3059 3059 3059 3059 3057 3051 3047 3047 3051 3054 3055 3055 3055 3057 3058 3059 3061 3063 3066 3067 3067 3068 3068 3068
3080 3079 3079 3077 3077 3078 3079 3078 3079 3079 3079 3078 3079 3078 3077 3077 3076 3076 3076 3074 3072 3062 3069 3071 3069 3067 3065 3061 3058 3054 3053 3052 3055 3058 3058 3057 3055 3055 3057 3059 3061 3062 3062 3062 3063 3064 3066 3066 3067 3066 3065 3067 3066 3064
3077 3076 3077 3076 3077 3078 3078 3078 3078 3078 3078 3078 3076 3076 3076 3076 3075 3075 3073 3072 3072 3070 3071 3070 3068 3065 3062 3057 3053 3052 3050 3053 3056 3058 3060 3061 3061 3062 3062 3063 3065 3065 3065 3065 3065 3065 3066 3068 3068 3067 3064 3064 3062 3060
3074 3075 3076 3076 3077 3078 3077 3077 3077 3077 3076 3076 3075 3075 3075 3074 3074 3073 3071 3071 3070 3072 3071 3069 3068 3065 3061 3056 3054 3055 3055 3058 3059 3061 3062 3063 3064 3065 3066 3067 3067 3067 3067 3067 3067 3066 3063 3065 3065 3065 3065 3063 3060 3058
3071 3072 3074 3077 3077 3076 3076 3075 3075 3075 3074 3075 3075 3074 3074 3073 3072 3071 3071 3070 3071 3072 3071 3070 3068 3067 3065 3063 3060 3060 3061 3062 3064 3065 3066 3066 3067 3067 3066 3067 3069 3068 3067 3067 3068 3067 3067 3066 3065 3064 3063 3061 3058 3056
3070 3072 3074 3074 3075 3075 3075 3074 3073 3073 3072 3074 3073 3072 3071 3070 3071 3068 3069 3070 3070 3071 3071 3071 3070 3070 3068 3066 3067 3066 3066 3067 3067 3066 3068 3070 3070 3071 3071 3070 3070 3068 3067 3066 3065 3064 3063 3063 3062 3061 3060 3058 3057 3055
3070 3071 3072 3074 3075 3075 3074 3072 3072 3072 3073 3072 3071 3068 3068 3066 3066 3065 3065 3065 3067 3068 3070 3071 3071 3070 3070 3069 3069 3069 3068 3068 3070 3070 3070 3071 3072 3072 3072 3072 3071 3070 3068 3065 3064 3063 3063 3061 3060 3059 3058 3056 3055 3054
3071 3073 3073 3075 3074 3073 3072 3071 3070 3070 3070 3068 3067 3066 3066 3064 3063 3062 3058 3057 3060 3064 3067 3070 3070 3071 3070 3070 3070 3070 3069 3069 3071 3071 3072 3071 3071 3071 3071 3071 3071 3068 3067 3066 3065 3064 3062 3062 3061 3060 3058 3055 3053 3051
3072 3073 3074 3074 3073 3072 3071 3072 3071 3070 3069 3067 3067 3066 3065 3063 3063 3059 3057 3057 3060 3063 3066 3068 3069 3069 3070 3071 3070 3070 3070 3070 3071 3071 3071 3071 3071 3071 3070 3068 3068 3067 3065 3064 3065 3064 3062 3059 3057 3055 3054 3052 3050 3048
3072 3073 3073 3073 3073 3071 3072 3071 3070 3068 3066 3066 3066 3066 3066 3066 3065 3064 3063 3063 3064 3065 3067 3069 3068 3070 3070 3071 3071 3071 3071 3071 3070 3069 3069 3069 3069 3069 3068 3067 3067 3065 3064 3062 3062 3061 3060 3057 3055 3052 3050 3049 3047 3045